Time,TemperatureF,DewpointF,PressureIn,WindDirection,WindDirectionDegrees,WindSpeedMPH,WindSpeedGustMPH,Humidity,HourlyPrecipIn,Conditions,Clouds,dailyrainin,SoftwareType,DateUTC
2013-12-06 00:01:00,60.6,58.0,29.98,ENE,61,2.0,6.0,91,0.05,,,0.00,WUHU216DAVISVP2,2013-12-06 05:01:00,
2013-12-06 00:04:00,60.0,57.6,29.98,ENE,61,3.0,6.0,92,0.05,,,0.00,WUHU216DAVISVP2,2013-12-06 05:04:00,
2013-12-06 00:09:00,59.5,57.1,29.98,ENE,59,1.0,6.0,92,0.05,,,0.00,WUHU216DAVISVP2,2013-12-06 05:09:00,
2013-12-06 00:14:00,59.2,56.8,29.98,ENE,59,0.0,4.0,92,0.05,,,0.00,WUHU216DAVISVP2,2013-12-06 05:14:00,
2013-12-06 00:19:00,58.8,56.4,29.98,ENE,59,0.0,4.0,92,0.05,,,0.00,WUHU216DAVISVP2,2013-12-06 05:19:00,
2013-12-06 00:24:00,58.6,56.5,29.98,ENE,59,0.0,2.0,93,0.05,,,0.00,WUHU216DAVISVP2,2013-12-06 05:24:00,
2013-12-06 00:29:00,58.4,56.3,29.98,ENE,57,0.0,4.0,93,0.05,,,0.00,WUHU216DAVISVP2,2013-12-06 05:29:00,
2013-12-06 00:34:00,58.2,56.4,29.97,NE,53,3.0,5.0,94,0.05,,,0.00,WUHU216DAVISVP2,2013-12-06 05:34:00,
2013-12-06 00:39:00,58.1,56.3,29.97,NE,51,0.0,5.0,94,0.05,,,0.00,WUHU216DAVISVP2,2013-12-06 05:39:00,
2013-12-06 00:44:00,57.9,56.1,29.97,NE,51,0.0,5.0,94,0.05,,,0.00,WUHU216DAVISVP2,2013-12-06 05:44:00,
2013-12-06 00:49:00,57.7,55.7,29.97,NE,51,0.0,5.0,93,0.01,,,0.00,WUHU216DAVISVP2,2013-12-06 05:49:00,
2013-12-06 00:54:00,57.5,55.5,29.97,NE,51,0.0,3.0,93,0.00,,,0.00,WUHU216DAVISVP2,2013-12-06 05:54:00,
2013-12-06 00:59:00,57.3,55.3,29.97,NE,51,0.0,3.0,93,0.00,,,0.00,WUHU216DAVISVP2,2013-12-06 05:59:00,
2013-12-06 01:04:00,57.2,55.4,29.97,NE,51,0.0,3.0,94,0.00,,,0.00,WUHU216DAVISVP2,2013-12-06 06:04:00,
2013-12-06 01:09:00,57.1,55.4,29.97,NE,47,5.0,7.0,94,0.00,,,0.00,WUHU216DAVISVP2,2013-12-06 06:09:00,
2013-12-06 01:14:00,56.9,55.2,29.97,NE,38,2.0,7.0,94,0.00,,,0.00,WUHU216DAVISVP2,2013-12-06 06:14:00,
2013-12-06 01:19:00,56.7,54.7,29.97,ENE,77,4.0,7.0,93,0.00,,,0.00,WUHU216DAVISVP2,2013-12-06 06:19:00,
2013-12-06 01:24:00,56.5,54.5,29.97,NE,40,2.0,6.0,93,0.00,,,0.00,WUHU216DAVISVP2,2013-12-06 06:24:00,
2013-12-06 01:29:00,56.3,54.3,29.97,ENE,66,0.0,5.0,93,0.00,,,0.00,WUHU216DAVISVP2,2013-12-06 06:29:00,
2013-12-06 01:34:00,56.1,54.4,29.98,ENE,66,0.0,5.0,94,0.00,,,0.00,WUHU216DAVISVP2,2013-12-06 06:34:00,
2013-12-06 01:39:00,55.9,53.9,29.98,ENE,65,0.0,5.0,93,0.00,,,0.00,WUHU216DAVISVP2,2013-12-06 06:39:00,
2013-12-06 01:44:00,55.6,53.6,29.98,ENE,65,1.0,4.0,93,0.00,,,0.00,WUHU216DAVISVP2,2013-12-06 06:44:00,
2013-12-06 01:49:00,55.3,53.3,29.97,ENE,65,3.0,4.0,93,0.00,,,0.00,WUHU216DAVISVP2,2013-12-06 06:49:00,
2013-12-06 01:54:00,55.1,53.1,29.97,ENE,63,1.0,4.0,93,0.00,,,0.00,WUHU216DAVISVP2,2013-12-06 06:54:00,
2013-12-06 01:59:00,55.0,53.0,29.98,ENE,64,1.0,4.0,93,0.00,,,0.00,WUHU216DAVISVP2,2013-12-06 06:59:00,
2013-12-06 02:04:00,54.8,52.8,29.98,NE,35,0.0,5.0,93,0.00,,,0.00,WUHU216DAVISVP2,2013-12-06 07:04:00,
2013-12-06 02:09:00,54.6,52.6,29.98,NE,40,1.0,5.0,93,0.00,,,0.00,WUHU216DAVISVP2,2013-12-06 07:09:00,
2013-12-06 02:14:00,54.5,52.5,29.97,ENE,57,3.0,5.0,93,0.00,,,0.00,WUHU216DAVISVP2,2013-12-06 07:14:00,
2013-12-06 02:19:00,54.3,52.3,29.97,ENE,59,2.0,7.0,93,0.00,,,0.00,WUHU216DAVISVP2,2013-12-06 07:19:00,
2013-12-06 02:24:00,54.1,52.1,29.96,NE,44,4.0,7.0,93,0.00,,,0.00,WUHU216DAVISVP2,2013-12-06 07:24:00,
2013-12-06 02:29:00,53.9,51.9,29.97,ENE,71,0.0,6.0,93,0.00,,,0.00,WUHU216DAVISVP2,2013-12-06 07:29:00,
2013-12-06 02:34:00,53.8,51.8,29.96,ENE,69,1.0,6.0,93,0.00,,,0.00,WUHU216DAVISVP2,2013-12-06 07:34:00,
2013-12-06 02:39:00,53.8,52.1,29.96,ENE,69,1.0,6.0,94,0.01,,,0.01,WUHU216DAVISVP2,2013-12-06 07:39:00,
2013-12-06 02:44:00,53.8,52.1,29.96,ENE,69,0.0,3.0,94,0.03,,,0.03,WUHU216DAVISVP2,2013-12-06 07:44:00,
2013-12-06 02:49:00,53.8,52.4,29.96,ENE,69,0.0,3.0,95,0.03,,,0.03,WUHU216DAVISVP2,2013-12-06 07:49:00,
2013-12-06 02:54:00,53.9,52.5,29.97,ENE,69,0.0,2.0,95,0.03,,,0.03,WUHU216DAVISVP2,2013-12-06 07:54:00,
2013-12-06 02:59:00,53.9,52.5,29.96,ENE,69,0.0,1.0,95,0.03,,,0.03,WUHU216DAVISVP2,2013-12-06 07:59:00,
2013-12-06 03:04:00,53.8,52.4,29.96,ENE,69,0.0,2.0,95,0.03,,,0.03,WUHU216DAVISVP2,2013-12-06 08:04:00,
2013-12-06 03:10:00,53.8,52.4,29.96,ENE,69,0.0,2.0,95,0.03,,,0.03,WUHU216DAVISVP2,2013-12-06 08:10:00,
2013-12-06 03:14:00,53.7,52.3,29.95,NE,51,1.0,3.0,95,0.03,,,0.03,WUHU216DAVISVP2,2013-12-06 08:14:00,
2013-12-06 03:20:00,53.5,52.1,29.96,NE,54,2.0,3.0,95,0.03,,,0.03,WUHU216DAVISVP2,2013-12-06 08:20:00,
2013-12-06 03:25:00,53.4,52.0,29.95,ENE,57,2.0,4.0,95,0.03,,,0.03,WUHU216DAVISVP2,2013-12-06 08:25:00,
2013-12-06 03:30:00,53.3,51.9,29.96,NNE,28,2.0,5.0,95,0.03,,,0.03,WUHU216DAVISVP2,2013-12-06 08:30:00,
2013-12-06 03:35:00,53.2,51.8,29.96,NNE,28,0.0,5.0,95,0.03,,,0.03,WUHU216DAVISVP2,2013-12-06 08:35:00,
2013-12-06 03:40:00,53.1,51.7,29.96,NNE,28,0.0,5.0,95,0.01,,,0.03,WUHU216DAVISVP2,2013-12-06 08:40:00,
2013-12-06 03:45:00,53.0,51.6,29.95,NNE,28,0.0,4.0,95,0.00,,,0.03,WUHU216DAVISVP2,2013-12-06 08:45:00,
2013-12-06 03:50:00,53.0,51.6,29.94,NE,44,2.0,3.0,95,0.00,,,0.03,WUHU216DAVISVP2,2013-12-06 08:50:00,
2013-12-06 03:55:00,53.0,51.6,29.95,NE,44,0.0,3.0,95,0.00,,,0.03,WUHU216DAVISVP2,2013-12-06 08:55:00,
2013-12-06 04:00:00,53.0,51.6,29.94,NE,44,0.0,3.0,95,0.00,,,0.03,WUHU216DAVISVP2,2013-12-06 09:00:00,
2013-12-06 04:05:00,53.0,51.6,29.94,NE,44,0.0,3.0,95,0.01,,,0.04,WUHU216DAVISVP2,2013-12-06 09:05:00,
2013-12-06 04:10:00,53.1,51.7,29.94,NE,44,0.0,3.0,95,0.01,,,0.04,WUHU216DAVISVP2,2013-12-06 09:10:00,
2013-12-06 04:15:00,53.1,52.0,29.94,NE,44,0.0,3.0,96,0.01,,,0.04,WUHU216DAVISVP2,2013-12-06 09:15:00,
2013-12-06 04:20:00,53.2,52.1,29.94,NE,44,0.0,1.0,96,0.01,,,0.04,WUHU216DAVISVP2,2013-12-06 09:20:00,
2013-12-06 04:25:00,53.2,52.1,29.93,NE,44,0.0,2.0,96,0.01,,,0.04,WUHU216DAVISVP2,2013-12-06 09:25:00,
2013-12-06 04:31:00,53.2,52.1,29.93,East,94,0.0,3.0,96,0.01,,,0.04,WUHU216DAVISVP2,2013-12-06 09:31:00,
2013-12-06 04:36:00,53.2,52.1,29.92,NE,47,2.0,6.0,96,0.05,,,0.08,WUHU216DAVISVP2,2013-12-06 09:36:00,
2013-12-06 04:41:00,53.1,51.7,29.92,ENE,62,0.0,6.0,95,0.06,,,0.09,WUHU216DAVISVP2,2013-12-06 09:41:00,
2013-12-06 04:46:00,53.0,51.6,29.92,ENE,62,0.0,6.0,95,0.08,,,0.10,WUHU216DAVISVP2,2013-12-06 09:46:00,
2013-12-06 04:51:00,52.9,51.5,29.92,ENE,61,0.0,6.0,95,0.09,,,0.11,WUHU216DAVISVP2,2013-12-06 09:51:00,
2013-12-06 04:57:00,52.7,51.3,29.94,ENE,61,0.0,3.0,95,0.15,,,0.17,WUHU216DAVISVP2,2013-12-06 09:57:00,
2013-12-06 05:02:00,52.6,51.2,29.93,ENE,62,0.0,3.0,95,0.20,,,0.24,WUHU216DAVISVP2,2013-12-06 10:02:00,
2013-12-06 05:07:00,52.4,51.0,29.94,ENE,61,1.0,2.0,95,0.21,,,0.25,WUHU216DAVISVP2,2013-12-06 10:07:00,
2013-12-06 05:12:00,52.1,50.7,29.96,North,5,0.0,2.0,95,0.23,,,0.26,WUHU216DAVISVP2,2013-12-06 10:12:00,
2013-12-06 05:17:00,51.8,50.4,29.96,ENE,63,1.0,3.0,95,0.28,,,0.31,WUHU216DAVISVP2,2013-12-06 10:17:00,
2013-12-06 05:22:00,51.5,50.1,29.98,ENE,62,1.0,3.0,95,0.36,,,0.40,WUHU216DAVISVP2,2013-12-06 10:22:00,
2013-12-06 05:27:00,51.4,50.0,29.98,NE,45,1.0,3.0,95,0.39,,,0.43,WUHU216DAVISVP2,2013-12-06 10:27:00,
2013-12-06 05:32:00,51.4,50.3,29.99,North,355,0.0,5.0,96,0.41,,,0.45,WUHU216DAVISVP2,2013-12-06 10:32:00,
2013-12-06 05:37:00,51.4,50.3,29.99,North,355,0.0,5.0,96,0.39,,,0.46,WUHU216DAVISVP2,2013-12-06 10:37:00,
2013-12-06 05:42:00,51.2,49.8,30.00,WNW,296,2.0,5.0,95,0.37,,,0.46,WUHU216DAVISVP2,2013-12-06 10:42:00,
2013-12-06 05:47:00,50.8,49.4,30.02,West,269,0.0,5.0,95,0.39,,,0.49,WUHU216DAVISVP2,2013-12-06 10:47:00,
2013-12-06 05:52:00,50.6,49.2,30.02,NW,322,0.0,4.0,95,0.35,,,0.49,WUHU216DAVISVP2,2013-12-06 10:52:00,
2013-12-06 05:57:00,50.4,49.0,30.02,NNE,21,0.0,4.0,95,0.30,,,0.49,WUHU216DAVISVP2,2013-12-06 10:57:00,
2013-12-06 06:02:00,49.9,48.2,30.02,ENE,59,4.0,8.0,94,0.25,,,0.49,WUHU216DAVISVP2,2013-12-06 11:02:00,
2013-12-06 06:07:00,49.2,47.2,30.02,NNE,32,0.0,8.0,93,0.24,,,0.49,WUHU216DAVISVP2,2013-12-06 11:07:00,
2013-12-06 06:12:00,48.6,46.7,30.01,NW,320,0.0,8.0,93,0.21,,,0.49,WUHU216DAVISVP2,2013-12-06 11:12:00,
2013-12-06 06:17:00,48.1,45.8,30.01,NNE,14,2.0,8.0,92,0.17,,,0.49,WUHU216DAVISVP2,2013-12-06 11:17:00,
2013-12-06 06:22:00,47.7,45.4,30.01,NE,48,1.0,7.0,92,0.07,,,0.49,WUHU216DAVISVP2,2013-12-06 11:22:00,
2013-12-06 06:27:00,47.6,45.6,30.01,NE,34,0.0,7.0,93,0.06,,,0.49,WUHU216DAVISVP2,2013-12-06 11:27:00,
2013-12-06 06:32:00,47.5,45.8,30.01,NE,34,0.0,4.0,94,0.04,,,0.49,WUHU216DAVISVP2,2013-12-06 11:32:00,
2013-12-06 06:37:00,47.4,45.4,30.00,NE,34,0.0,3.0,93,0.03,,,0.49,WUHU216DAVISVP2,2013-12-06 11:37:00,
2013-12-06 06:42:00,47.2,45.2,30.01,SW,216,0.0,5.0,93,0.01,,,0.49,WUHU216DAVISVP2,2013-12-06 11:42:00,
2013-12-06 06:47:00,47.2,45.2,30.01,SW,216,0.0,5.0,93,0.00,,,0.49,WUHU216DAVISVP2,2013-12-06 11:47:00,
2013-12-06 06:52:00,47.1,45.1,30.01,SW,216,0.0,5.0,93,0.00,,,0.49,WUHU216DAVISVP2,2013-12-06 11:52:00,
2013-12-06 06:57:00,47.2,45.5,30.01,SW,216,0.0,5.0,94,0.00,,,0.49,WUHU216DAVISVP2,2013-12-06 11:57:00,
2013-12-06 07:02:00,47.2,45.5,30.01,SW,216,0.0,1.0,94,0.00,,,0.49,WUHU216DAVISVP2,2013-12-06 12:02:00,
2013-12-06 07:07:00,47.2,45.5,30.02,SW,215,0.0,1.0,94,0.00,,,0.49,WUHU216DAVISVP2,2013-12-06 12:07:00,
2013-12-06 07:12:00,47.3,45.9,30.03,SW,216,0.0,1.0,95,0.00,,,0.49,WUHU216DAVISVP2,2013-12-06 12:12:00,
2013-12-06 07:17:00,47.4,46.0,30.03,SW,215,0.0,2.0,95,0.01,,,0.50,WUHU216DAVISVP2,2013-12-06 12:17:00,
2013-12-06 07:22:00,47.5,46.1,30.03,SW,215,1.0,2.0,95,0.03,,,0.51,WUHU216DAVISVP2,2013-12-06 12:22:00,
2013-12-06 07:27:00,47.5,46.1,30.03,SW,215,1.0,2.0,95,0.03,,,0.51,WUHU216DAVISVP2,2013-12-06 12:27:00,
2013-12-06 07:32:00,47.4,46.0,30.02,East,92,3.0,6.0,95,0.03,,,0.51,WUHU216DAVISVP2,2013-12-06 12:32:00,
2013-12-06 07:37:00,47.2,45.5,30.02,East,82,1.0,6.0,94,0.04,,,0.53,WUHU216DAVISVP2,2013-12-06 12:37:00,
2013-12-06 07:42:00,46.9,45.2,30.04,ESE,107,1.0,6.0,94,0.04,,,0.53,WUHU216DAVISVP2,2013-12-06 12:42:00,
2013-12-06 07:47:00,46.7,45.0,30.03,ESE,107,1.0,6.0,94,0.04,,,0.53,WUHU216DAVISVP2,2013-12-06 12:47:00,
2013-12-06 07:52:00,46.5,44.8,30.04,ESE,111,0.0,5.0,94,0.04,,,0.53,WUHU216DAVISVP2,2013-12-06 12:52:00,
2013-12-06 07:57:00,46.4,44.7,30.04,NE,55,0.0,5.0,94,0.04,,,0.53,WUHU216DAVISVP2,2013-12-06 12:57:00,
2013-12-06 08:02:00,46.3,44.6,30.05,ENE,57,1.0,5.0,94,0.04,,,0.53,WUHU216DAVISVP2,2013-12-06 13:02:00,
2013-12-06 08:07:00,46.3,44.6,30.05,ENE,57,0.0,5.0,94,0.04,,,0.53,WUHU216DAVISVP2,2013-12-06 13:07:00,
2013-12-06 08:12:00,46.4,44.7,30.04,ENE,65,0.0,5.0,94,0.04,,,0.53,WUHU216DAVISVP2,2013-12-06 13:12:00,
2013-12-06 08:17:00,46.5,45.1,30.05,ENE,65,2.0,3.0,95,0.03,,,0.53,WUHU216DAVISVP2,2013-12-06 13:17:00,
2013-12-06 08:22:00,46.6,45.2,30.04,NE,48,0.0,4.0,95,0.01,,,0.53,WUHU216DAVISVP2,2013-12-06 13:22:00,
2013-12-06 08:27:00,46.6,45.2,30.05,NE,48,0.0,4.0,95,0.01,,,0.53,WUHU216DAVISVP2,2013-12-06 13:27:00,
2013-12-06 08:32:00,46.7,45.3,30.06,NE,49,0.0,4.0,95,0.01,,,0.53,WUHU216DAVISVP2,2013-12-06 13:32:00,
2013-12-06 08:37:00,46.7,45.3,30.05,NE,48,1.0,4.0,95,0.00,,,0.53,WUHU216DAVISVP2,2013-12-06 13:37:00,
2013-12-06 08:42:00,46.6,45.2,30.05,NE,49,2.0,4.0,95,0.00,,,0.53,WUHU216DAVISVP2,2013-12-06 13:42:00,
2013-12-06 08:47:00,46.5,45.1,30.05,NE,49,0.0,2.0,95,0.01,,,0.54,WUHU216DAVISVP2,2013-12-06 13:47:00,
2013-12-06 08:52:00,46.5,45.1,30.06,ESE,123,2.0,3.0,95,0.03,,,0.55,WUHU216DAVISVP2,2013-12-06 13:52:00,
2013-12-06 08:57:00,46.4,45.0,30.05,NE,40,1.0,3.0,95,0.04,,,0.56,WUHU216DAVISVP2,2013-12-06 13:57:00,
2013-12-06 09:03:00,46.4,45.0,30.05,NE,41,3.0,3.0,95,0.04,,,0.56,WUHU216DAVISVP2,2013-12-06 14:03:00,
2013-12-06 09:08:00,46.4,45.0,30.05,NE,48,3.0,5.0,95,0.04,,,0.56,WUHU216DAVISVP2,2013-12-06 14:08:00,
2013-12-06 09:13:00,46.4,45.0,30.04,East,82,1.0,5.0,95,0.04,,,0.56,WUHU216DAVISVP2,2013-12-06 14:13:00,
2013-12-06 09:18:00,46.4,45.0,30.05,ENE,65,0.0,5.0,95,0.04,,,0.56,WUHU216DAVISVP2,2013-12-06 14:18:00,
2013-12-06 09:23:00,46.5,45.1,30.05,ENE,65,0.0,4.0,95,0.04,,,0.56,WUHU216DAVISVP2,2013-12-06 14:23:00,
2013-12-06 09:28:00,46.5,45.4,30.06,ENE,65,0.0,3.0,96,0.04,,,0.56,WUHU216DAVISVP2,2013-12-06 14:28:00,
2013-12-06 09:33:00,46.6,45.5,30.05,ENE,65,0.0,3.0,96,0.04,,,0.56,WUHU216DAVISVP2,2013-12-06 14:33:00,
2013-12-06 09:38:00,46.7,45.6,30.06,ENE,65,0.0,2.0,96,0.04,,,0.56,WUHU216DAVISVP2,2013-12-06 14:38:00,
2013-12-06 09:43:00,46.7,45.6,30.06,ENE,65,1.0,2.0,96,0.04,,,0.56,WUHU216DAVISVP2,2013-12-06 14:43:00,
2013-12-06 09:49:00,46.7,45.3,30.06,ENE,65,0.0,2.0,95,0.04,,,0.57,WUHU216DAVISVP2,2013-12-06 14:49:00,
2013-12-06 09:54:00,46.9,45.8,30.06,ENE,65,0.0,2.0,96,0.02,,,0.57,WUHU216DAVISVP2,2013-12-06 14:54:00,
2013-12-06 09:59:00,46.8,45.4,30.06,NE,46,0.0,4.0,95,0.01,,,0.57,WUHU216DAVISVP2,2013-12-06 14:59:00,
2013-12-06 10:04:00,46.6,45.2,30.06,ENE,59,3.0,4.0,95,0.01,,,0.57,WUHU216DAVISVP2,2013-12-06 15:04:00,
2013-12-06 10:09:00,46.5,45.1,30.05,ENE,61,2.0,4.0,95,0.01,,,0.57,WUHU216DAVISVP2,2013-12-06 15:09:00,
2013-12-06 10:14:00,46.6,45.2,30.05,ENE,69,1.0,4.0,95,0.01,,,0.57,WUHU216DAVISVP2,2013-12-06 15:14:00,
2013-12-06 10:19:00,46.7,45.6,30.06,NE,41,2.0,4.0,96,0.01,,,0.57,WUHU216DAVISVP2,2013-12-06 15:19:00,
2013-12-06 10:24:00,46.7,45.3,30.07,NE,41,0.0,4.0,95,0.01,,,0.57,WUHU216DAVISVP2,2013-12-06 15:24:00,
2013-12-06 10:29:00,46.6,45.2,30.06,ENE,65,5.0,5.0,95,0.01,,,0.57,WUHU216DAVISVP2,2013-12-06 15:29:00,
2013-12-06 10:34:00,46.6,45.2,30.06,ENE,64,0.0,5.0,95,0.01,,,0.57,WUHU216DAVISVP2,2013-12-06 15:34:00,
2013-12-06 10:39:00,46.5,45.1,30.05,NNE,32,3.0,5.0,95,0.01,,,0.57,WUHU216DAVISVP2,2013-12-06 15:39:00,
2013-12-06 10:44:00,46.5,45.1,30.05,NE,39,2.0,5.0,95,0.01,,,0.57,WUHU216DAVISVP2,2013-12-06 15:44:00,
2013-12-06 10:49:00,46.5,45.1,30.05,NE,44,2.0,5.0,95,0.00,,,0.57,WUHU216DAVISVP2,2013-12-06 15:49:00,
2013-12-06 10:54:00,46.4,45.0,30.05,NE,44,1.0,5.0,95,0.00,,,0.57,WUHU216DAVISVP2,2013-12-06 15:54:00,
2013-12-06 10:59:00,46.4,45.0,30.06,NE,44,0.0,5.0,95,0.00,,,0.57,WUHU216DAVISVP2,2013-12-06 15:59:00,
2013-12-06 11:04:00,46.3,44.9,30.06,NE,44,0.0,4.0,95,0.00,,,0.57,WUHU216DAVISVP2,2013-12-06 16:04:00,
2013-12-06 11:09:00,46.3,44.9,30.05,NE,44,2.0,2.0,95,0.00,,,0.57,WUHU216DAVISVP2,2013-12-06 16:09:00,
2013-12-06 11:14:00,46.3,44.9,30.05,NE,50,0.0,5.0,95,0.00,,,0.57,WUHU216DAVISVP2,2013-12-06 16:14:00,
2013-12-06 11:19:00,46.2,44.8,30.04,NE,50,0.0,5.0,95,0.00,,,0.57,WUHU216DAVISVP2,2013-12-06 16:19:00,
2013-12-06 11:24:00,46.2,44.8,30.05,NE,50,0.0,5.0,95,0.00,,,0.57,WUHU216DAVISVP2,2013-12-06 16:24:00,
2013-12-06 11:29:00,46.2,44.8,30.05,NE,50,1.0,4.0,95,0.00,,,0.57,WUHU216DAVISVP2,2013-12-06 16:29:00,
2013-12-06 11:34:00,46.3,44.9,30.05,NE,50,0.0,3.0,95,0.00,,,0.57,WUHU216DAVISVP2,2013-12-06 16:34:00,
2013-12-06 11:39:00,46.2,44.8,30.04,NE,56,1.0,4.0,95,0.00,,,0.57,WUHU216DAVISVP2,2013-12-06 16:39:00,
2013-12-06 11:44:00,46.3,44.9,30.03,NE,56,0.0,4.0,95,0.00,,,0.57,WUHU216DAVISVP2,2013-12-06 16:44:00,
2013-12-06 11:49:00,46.3,44.9,30.02,NE,56,0.0,4.0,95,0.00,,,0.57,WUHU216DAVISVP2,2013-12-06 16:49:00,
2013-12-06 11:54:00,46.4,45.3,30.02,NE,56,0.0,4.0,96,0.00,,,0.57,WUHU216DAVISVP2,2013-12-06 16:54:00,
2013-12-06 11:59:00,46.4,45.3,30.03,NE,56,0.0,2.0,96,0.00,,,0.57,WUHU216DAVISVP2,2013-12-06 16:59:00,
2013-12-06 12:04:00,46.5,45.4,30.02,North,5,0.0,3.0,96,0.00,,,0.57,WUHU216DAVISVP2,2013-12-06 17:04:00,
2013-12-06 12:09:00,46.5,45.1,30.02,North,5,0.0,3.0,95,0.00,,,0.57,WUHU216DAVISVP2,2013-12-06 17:09:00,
2013-12-06 12:14:00,46.5,45.1,30.02,NE,52,0.0,3.0,95,0.00,,,0.57,WUHU216DAVISVP2,2013-12-06 17:14:00,
2013-12-06 12:19:00,46.5,45.1,30.02,NE,52,2.0,3.0,95,0.01,,,0.59,WUHU216DAVISVP2,2013-12-06 17:19:00,
2013-12-06 12:24:00,46.7,45.6,30.02,NE,53,0.0,2.0,96,0.01,,,0.59,WUHU216DAVISVP2,2013-12-06 17:24:00,
2013-12-06 12:29:00,46.7,45.6,30.01,ENE,59,3.0,3.0,96,0.01,,,0.59,WUHU216DAVISVP2,2013-12-06 17:29:00,
2013-12-06 12:34:00,46.9,45.8,30.01,ENE,59,1.0,3.0,96,0.01,,,0.59,WUHU216DAVISVP2,2013-12-06 17:34:00,
2013-12-06 12:39:00,47.0,45.9,30.01,ENE,59,0.0,3.0,96,0.01,,,0.59,WUHU216DAVISVP2,2013-12-06 17:39:00,
2013-12-06 12:44:00,46.9,45.8,30.00,ENE,59,0.0,3.0,96,0.01,,,0.59,WUHU216DAVISVP2,2013-12-06 17:44:00,
2013-12-06 12:49:00,47.0,45.9,30.00,ENE,59,0.0,2.0,96,0.01,,,0.59,WUHU216DAVISVP2,2013-12-06 17:49:00,
2013-12-06 12:54:00,47.0,45.9,30.01,NNE,29,0.0,3.0,96,0.01,,,0.59,WUHU216DAVISVP2,2013-12-06 17:54:00,
2013-12-06 12:59:00,47.1,46.0,30.00,NNE,29,0.0,3.0,96,0.01,,,0.59,WUHU216DAVISVP2,2013-12-06 17:59:00,
2013-12-06 13:04:00,47.0,45.9,30.00,NNE,29,0.0,3.0,96,0.01,,,0.59,WUHU216DAVISVP2,2013-12-06 18:04:00,
2013-12-06 13:09:00,47.1,46.0,29.99,NE,50,0.0,3.0,96,0.01,,,0.59,WUHU216DAVISVP2,2013-12-06 18:09:00,
2013-12-06 13:14:00,47.1,46.0,29.99,NE,49,0.0,2.0,96,0.01,,,0.59,WUHU216DAVISVP2,2013-12-06 18:14:00,
2013-12-06 13:19:00,47.1,45.7,29.98,NE,51,0.0,2.0,95,0.00,,,0.59,WUHU216DAVISVP2,2013-12-06 18:19:00,
2013-12-06 13:24:00,47.1,45.7,29.98,NE,56,1.0,3.0,95,0.00,,,0.59,WUHU216DAVISVP2,2013-12-06 18:24:00,
2013-12-06 13:29:00,47.1,45.7,29.98,NE,56,1.0,3.0,95,0.00,,,0.59,WUHU216DAVISVP2,2013-12-06 18:29:00,
2013-12-06 13:34:00,47.1,45.7,29.98,NE,56,0.0,3.0,95,0.00,,,0.59,WUHU216DAVISVP2,2013-12-06 18:34:00,
2013-12-06 13:39:00,47.1,45.7,29.98,NE,56,0.0,3.0,95,0.00,,,0.59,WUHU216DAVISVP2,2013-12-06 18:39:00,
2013-12-06 13:44:00,47.2,45.8,29.97,NE,47,1.0,3.0,95,0.00,,,0.59,WUHU216DAVISVP2,2013-12-06 18:44:00,
2013-12-06 13:49:00,47.2,45.8,29.97,ENE,72,3.0,3.0,95,0.00,,,0.59,WUHU216DAVISVP2,2013-12-06 18:49:00,
2013-12-06 13:54:00,47.2,45.8,29.96,ENE,71,1.0,3.0,95,0.00,,,0.59,WUHU216DAVISVP2,2013-12-06 18:54:00,
2013-12-06 13:59:00,47.2,45.8,29.96,ENE,71,2.0,3.0,95,0.00,,,0.59,WUHU216DAVISVP2,2013-12-06 18:59:00,
2013-12-06 14:04:00,47.2,45.8,29.97,ENE,71,1.0,3.0,95,0.00,,,0.59,WUHU216DAVISVP2,2013-12-06 19:04:00,
2013-12-06 14:09:00,47.3,46.2,29.97,ENE,71,0.0,3.0,96,0.00,,,0.59,WUHU216DAVISVP2,2013-12-06 19:09:00,
2013-12-06 14:14:00,47.3,46.2,29.98,ENE,71,0.0,3.0,96,0.00,,,0.59,WUHU216DAVISVP2,2013-12-06 19:14:00,
2013-12-06 14:19:00,47.4,46.3,29.99,ENE,71,0.0,3.0,96,0.00,,,0.59,WUHU216DAVISVP2,2013-12-06 19:19:00,
2013-12-06 14:24:00,47.3,46.2,29.98,ENE,71,0.0,3.0,96,0.00,,,0.59,WUHU216DAVISVP2,2013-12-06 19:24:00,
2013-12-06 14:29:00,47.4,46.3,29.98,ENE,71,0.0,3.0,96,0.00,,,0.59,WUHU216DAVISVP2,2013-12-06 19:29:00,
2013-12-06 14:34:00,47.4,46.3,29.98,ENE,71,0.0,2.0,96,0.00,,,0.59,WUHU216DAVISVP2,2013-12-06 19:34:00,
2013-12-06 14:39:00,47.4,46.3,29.97,ENE,71,1.0,4.0,96,0.00,,,0.59,WUHU216DAVISVP2,2013-12-06 19:39:00,
2013-12-06 14:44:00,47.5,46.4,29.96,ENE,69,0.0,4.0,96,0.00,,,0.59,WUHU216DAVISVP2,2013-12-06 19:44:00,
2013-12-06 14:49:00,47.6,46.5,29.97,ENE,68,0.0,4.0,96,0.01,,,0.60,WUHU216DAVISVP2,2013-12-06 19:49:00,
2013-12-06 14:54:00,47.7,46.6,29.96,ENE,69,2.0,4.0,96,0.03,,,0.61,WUHU216DAVISVP2,2013-12-06 19:54:00,
2013-12-06 14:59:00,47.7,46.6,29.97,ENE,67,0.0,3.0,96,0.03,,,0.61,WUHU216DAVISVP2,2013-12-06 19:59:00,
2013-12-06 15:04:00,47.8,46.7,29.96,ENE,67,1.0,3.0,96,0.03,,,0.61,WUHU216DAVISVP2,2013-12-06 20:04:00,
2013-12-06 15:09:00,47.7,46.6,29.97,ENE,67,0.0,3.0,96,0.03,,,0.61,WUHU216DAVISVP2,2013-12-06 20:09:00,
2013-12-06 15:14:00,47.7,46.6,29.96,ENE,67,1.0,3.0,96,0.04,,,0.63,WUHU216DAVISVP2,2013-12-06 20:14:00,
2013-12-06 15:19:00,47.8,46.7,29.98,ENE,67,0.0,3.0,96,0.05,,,0.64,WUHU216DAVISVP2,2013-12-06 20:19:00,
2013-12-06 15:24:00,47.8,46.7,29.98,ENE,67,0.0,2.0,96,0.05,,,0.64,WUHU216DAVISVP2,2013-12-06 20:24:00,
2013-12-06 15:29:00,47.8,46.7,29.98,ENE,67,2.0,2.0,96,0.05,,,0.64,WUHU216DAVISVP2,2013-12-06 20:29:00,
2013-12-06 15:34:00,47.7,46.6,29.98,ENE,67,0.0,2.0,96,0.05,,,0.64,WUHU216DAVISVP2,2013-12-06 20:34:00,
2013-12-06 15:39:00,47.7,46.6,29.99,ENE,67,1.0,2.0,96,0.05,,,0.64,WUHU216DAVISVP2,2013-12-06 20:39:00,
2013-12-06 15:44:00,47.7,46.6,29.98,ENE,67,3.0,5.0,96,0.05,,,0.64,WUHU216DAVISVP2,2013-12-06 20:44:00,
2013-12-06 15:49:00,47.6,46.5,29.99,NW,306,1.0,5.0,96,0.04,,,0.64,WUHU216DAVISVP2,2013-12-06 20:49:00,
2013-12-06 15:54:00,47.4,46.3,29.99,ENE,58,0.0,5.0,96,0.04,,,0.65,WUHU216DAVISVP2,2013-12-06 20:54:00,
2013-12-06 15:59:00,47.3,46.2,29.99,ENE,58,0.0,5.0,96,0.04,,,0.65,WUHU216DAVISVP2,2013-12-06 20:59:00,
2013-12-06 16:04:00,47.2,46.1,30.00,ENE,59,0.0,4.0,96,0.05,,,0.66,WUHU216DAVISVP2,2013-12-06 21:04:00,
2013-12-06 16:09:00,47.0,45.6,30.01,ENE,58,0.0,4.0,95,0.05,,,0.66,WUHU216DAVISVP2,2013-12-06 21:09:00,
2013-12-06 16:14:00,46.9,45.5,30.00,ENE,58,0.0,1.0,95,0.04,,,0.66,WUHU216DAVISVP2,2013-12-06 21:14:00,
2013-12-06 16:19:00,46.9,45.5,30.01,NE,55,0.0,2.0,95,0.02,,,0.66,WUHU216DAVISVP2,2013-12-06 21:19:00,
2013-12-06 16:24:00,46.9,45.8,30.01,NE,55,0.0,2.0,96,0.02,,,0.66,WUHU216DAVISVP2,2013-12-06 21:24:00,
2013-12-06 16:29:00,46.8,45.7,30.04,NE,55,0.0,2.0,96,0.02,,,0.66,WUHU216DAVISVP2,2013-12-06 21:29:00,
2013-12-06 16:34:00,46.8,45.7,30.03,NE,55,0.0,2.0,96,0.04,,,0.68,WUHU216DAVISVP2,2013-12-06 21:34:00,
2013-12-06 16:39:00,46.7,45.3,30.04,NE,55,1.0,2.0,95,0.04,,,0.68,WUHU216DAVISVP2,2013-12-06 21:39:00,
2013-12-06 16:44:00,46.6,45.2,30.05,NE,55,0.0,2.0,95,0.04,,,0.68,WUHU216DAVISVP2,2013-12-06 21:44:00,
2013-12-06 16:49:00,46.5,45.1,30.04,ENE,65,0.0,2.0,95,0.05,,,0.69,WUHU216DAVISVP2,2013-12-06 21:49:00,
2013-12-06 16:54:00,46.5,45.1,30.04,ENE,65,1.0,2.0,95,0.04,,,0.69,WUHU216DAVISVP2,2013-12-06 21:54:00,
2013-12-06 16:59:00,46.3,44.9,30.04,NW,311,0.0,2.0,95,0.04,,,0.69,WUHU216DAVISVP2,2013-12-06 21:59:00,
2013-12-06 17:04:00,46.1,44.4,30.03,NW,311,0.0,2.0,94,0.03,,,0.69,WUHU216DAVISVP2,2013-12-06 22:04:00,
2013-12-06 17:09:00,46.0,44.3,30.03,ENE,63,1.0,3.0,94,0.03,,,0.69,WUHU216DAVISVP2,2013-12-06 22:09:00,
2013-12-06 17:14:00,46.0,44.6,30.04,ENE,63,0.0,3.0,95,0.03,,,0.69,WUHU216DAVISVP2,2013-12-06 22:14:00,
2013-12-06 17:19:00,46.0,44.6,30.05,East,86,1.0,5.0,95,0.03,,,0.69,WUHU216DAVISVP2,2013-12-06 22:19:00,
2013-12-06 17:24:00,45.9,44.5,30.06,WNW,301,0.0,5.0,95,0.03,,,0.69,WUHU216DAVISVP2,2013-12-06 22:24:00,
2013-12-06 17:30:00,45.6,44.0,30.06,ENE,66,3.0,5.0,94,0.03,,,0.69,WUHU216DAVISVP2,2013-12-06 22:30:00,
2013-12-06 17:35:00,45.2,43.5,30.09,NE,54,0.0,5.0,94,0.03,,,0.70,WUHU216DAVISVP2,2013-12-06 22:35:00,
2013-12-06 17:40:00,44.8,43.1,30.08,NNE,25,3.0,4.0,94,0.04,,,0.71,WUHU216DAVISVP2,2013-12-06 22:40:00,
2013-12-06 17:44:00,44.6,42.9,30.06,NE,42,0.0,8.0,94,0.06,,,0.74,WUHU216DAVISVP2,2013-12-06 22:44:00,
2013-12-06 17:50:00,44.4,42.7,30.07,NE,42,0.0,8.0,94,0.05,,,0.74,WUHU216DAVISVP2,2013-12-06 22:50:00,
2013-12-06 17:55:00,44.2,42.5,30.07,NE,42,0.0,7.0,94,0.08,,,0.76,WUHU216DAVISVP2,2013-12-06 22:55:00,
2013-12-06 18:00:00,44.1,42.4,30.07,NE,41,0.0,7.0,94,0.08,,,0.76,WUHU216DAVISVP2,2013-12-06 23:00:00,
2013-12-06 18:05:00,44.0,42.6,30.06,ENE,73,4.0,7.0,95,0.15,,,0.84,WUHU216DAVISVP2,2013-12-06 23:05:00,
2013-12-06 18:10:00,43.9,42.5,30.07,ENE,57,2.0,7.0,95,0.24,,,0.93,WUHU216DAVISVP2,2013-12-06 23:10:00,
2013-12-06 18:15:00,43.7,42.3,30.07,NE,51,2.0,7.0,95,0.28,,,0.96,WUHU216DAVISVP2,2013-12-06 23:15:00,
2013-12-06 18:20:00,43.4,42.0,30.08,NE,38,0.0,7.0,95,0.29,,,0.97,WUHU216DAVISVP2,2013-12-06 23:20:00,
2013-12-06 18:25:00,43.1,41.4,30.09,NNE,24,5.0,5.0,94,0.29,,,0.97,WUHU216DAVISVP2,2013-12-06 23:25:00,
2013-12-06 18:30:00,42.8,41.1,30.10,NNW,337,0.0,5.0,94,0.27,,,0.97,WUHU216DAVISVP2,2013-12-06 23:30:00,
2013-12-06 18:35:00,42.6,41.2,30.11,NNE,21,1.0,5.0,95,0.29,,,0.99,WUHU216DAVISVP2,2013-12-06 23:35:00,
2013-12-06 18:40:00,42.5,41.1,30.11,NE,51,2.0,5.0,95,0.29,,,1.00,WUHU216DAVISVP2,2013-12-06 23:40:00,
2013-12-06 18:45:00,42.4,41.0,30.11,ENE,65,5.0,6.0,95,0.29,,,1.02,WUHU216DAVISVP2,2013-12-06 23:45:00,
2013-12-06 18:50:00,42.3,40.9,30.11,NE,44,6.0,8.0,95,0.30,,,1.04,WUHU216DAVISVP2,2013-12-06 23:50:00,
2013-12-06 18:55:00,42.0,40.6,30.14,NNE,21,3.0,8.0,95,0.30,,,1.06,WUHU216DAVISVP2,2013-12-06 23:55:00,
2013-12-06 19:00:00,41.7,40.1,30.14,NE,44,0.0,7.0,94,0.32,,,1.09,WUHU216DAVISVP2,2013-12-07 00:00:00,
2013-12-06 19:05:00,41.5,40.1,30.12,NNE,23,0.0,7.0,95,0.29,,,1.13,WUHU216DAVISVP2,2013-12-07 00:05:00,
2013-12-06 19:10:00,41.3,39.9,30.14,SW,215,2.0,7.0,95,0.24,,,1.16,WUHU216DAVISVP2,2013-12-07 00:10:00,
2013-12-06 19:15:00,41.0,39.6,30.13,ENE,63,5.0,7.0,95,0.20,,,1.16,WUHU216DAVISVP2,2013-12-07 00:15:00,
2013-12-06 19:20:00,40.9,39.5,30.15,NE,45,1.0,9.0,95,0.21,,,1.19,WUHU216DAVISVP2,2013-12-07 00:20:00,
2013-12-06 19:25:00,40.7,39.3,30.15,NE,38,6.0,9.0,95,0.24,,,1.21,WUHU216DAVISVP2,2013-12-07 00:25:00,
2013-12-06 19:30:00,40.6,39.2,30.17,North,360,0.0,10.0,95,0.25,,,1.22,WUHU216DAVISVP2,2013-12-07 00:30:00,
2013-12-06 19:35:00,40.5,39.1,30.17,NE,53,1.0,10.0,95,0.25,,,1.24,WUHU216DAVISVP2,2013-12-07 00:35:00,
2013-12-06 19:40:00,40.4,39.0,30.18,NE,49,1.0,10.0,95,0.29,,,1.29,WUHU216DAVISVP2,2013-12-07 00:40:00,
2013-12-06 19:45:00,40.2,38.8,30.17,NE,55,0.0,8.0,95,0.29,,,1.31,WUHU216DAVISVP2,2013-12-07 00:45:00,
2013-12-06 19:50:00,40.0,38.4,30.15,NNE,17,8.0,11.0,94,0.29,,,1.33,WUHU216DAVISVP2,2013-12-07 00:50:00,
2013-12-06 19:55:00,39.8,38.2,30.16,East,88,3.0,11.0,94,0.27,,,1.34,WUHU216DAVISVP2,2013-12-07 00:55:00,
2013-12-06 20:00:00,39.6,38.0,30.17,ENE,64,1.0,11.0,94,0.26,,,1.35,WUHU216DAVISVP2,2013-12-07 01:00:00,
2013-12-06 20:05:00,39.4,37.8,30.17,NE,51,0.0,11.0,94,0.23,,,1.36,WUHU216DAVISVP2,2013-12-07 01:05:00,
2013-12-06 20:10:00,39.3,37.7,30.16,North,5,0.0,8.0,94,0.23,,,1.39,WUHU216DAVISVP2,2013-12-07 01:10:00,
2013-12-06 20:15:00,39.1,37.5,30.16,NW,309,2.0,8.0,94,0.23,,,1.39,WUHU216DAVISVP2,2013-12-07 01:15:00,
2013-12-06 20:20:00,39.0,37.4,30.17,ENE,65,0.0,7.0,94,0.21,,,1.40,WUHU216DAVISVP2,2013-12-07 01:20:00,
2013-12-06 20:25:00,38.9,37.3,30.18,NNE,32,0.0,8.0,94,0.20,,,1.41,WUHU216DAVISVP2,2013-12-07 01:25:00,
2013-12-06 20:30:00,38.9,37.3,30.19,NNE,22,0.0,8.0,94,0.20,,,1.42,WUHU216DAVISVP2,2013-12-07 01:30:00,
2013-12-06 20:35:00,38.9,37.3,30.19,WSW,245,0.0,8.0,94,0.19,,,1.44,WUHU216DAVISVP2,2013-12-07 01:35:00,
2013-12-06 20:40:00,38.7,37.1,30.19,NW,311,0.0,8.0,94,0.15,,,1.44,WUHU216DAVISVP2,2013-12-07 01:40:00,
2013-12-06 20:45:00,38.6,37.0,30.18,North,360,2.0,8.0,94,0.13,,,1.44,WUHU216DAVISVP2,2013-12-07 01:45:00,
2013-12-06 20:50:00,38.6,37.0,30.18,NE,54,3.0,9.0,94,0.11,,,1.44,WUHU216DAVISVP2,2013-12-07 01:50:00,
2013-12-06 20:55:00,38.6,37.0,30.20,NE,54,0.0,9.0,94,0.11,,,1.45,WUHU216DAVISVP2,2013-12-07 01:55:00,
2013-12-06 21:00:00,38.5,36.9,30.19,NE,38,0.0,10.0,94,0.11,,,1.46,WUHU216DAVISVP2,2013-12-07 02:00:00,
2013-12-06 21:05:00,38.5,36.9,30.18,NNE,33,0.0,10.0,94,0.11,,,1.48,WUHU216DAVISVP2,2013-12-07 02:05:00,
2013-12-06 21:10:00,38.4,36.8,30.18,NNE,32,0.0,9.0,94,0.10,,,1.49,WUHU216DAVISVP2,2013-12-07 02:10:00,
2013-12-06 21:15:00,38.4,36.8,30.17,NNE,32,4.0,9.0,94,0.10,,,1.49,WUHU216DAVISVP2,2013-12-07 02:15:00,
2013-12-06 21:20:00,38.4,37.1,30.18,North,5,1.0,5.0,95,0.10,,,1.50,WUHU216DAVISVP2,2013-12-07 02:20:00,
2013-12-06 21:25:00,38.3,37.0,30.16,NNE,19,1.0,4.0,95,0.10,,,1.51,WUHU216DAVISVP2,2013-12-07 02:25:00,
2013-12-06 21:30:00,38.3,37.0,30.17,NE,35,1.0,4.0,95,0.09,,,1.51,WUHU216DAVISVP2,2013-12-07 02:30:00,
2013-12-06 21:35:00,38.3,37.0,30.17,ENE,67,1.0,7.0,95,0.07,,,1.51,WUHU216DAVISVP2,2013-12-07 02:35:00,
2013-12-06 21:40:00,38.3,37.0,30.19,ENE,71,0.0,7.0,95,0.07,,,1.51,WUHU216DAVISVP2,2013-12-07 02:40:00,
2013-12-06 21:45:00,38.4,37.1,30.18,ENE,71,0.0,7.0,95,0.07,,,1.51,WUHU216DAVISVP2,2013-12-07 02:45:00,
2013-12-06 21:50:00,38.4,37.1,30.19,ENE,63,0.0,4.0,95,0.09,,,1.53,WUHU216DAVISVP2,2013-12-07 02:50:00,
2013-12-06 21:55:00,38.3,37.0,30.18,ENE,63,1.0,4.0,95,0.08,,,1.53,WUHU216DAVISVP2,2013-12-07 02:55:00,
2013-12-06 22:00:00,38.3,37.0,30.18,NE,42,1.0,4.0,95,0.06,,,1.53,WUHU216DAVISVP2,2013-12-07 03:00:00,
2013-12-06 22:05:00,38.4,37.1,30.18,ENE,57,0.0,4.0,95,0.04,,,1.53,WUHU216DAVISVP2,2013-12-07 03:05:00,
2013-12-06 22:10:00,38.4,37.1,30.18,ENE,62,0.0,5.0,95,0.04,,,1.53,WUHU216DAVISVP2,2013-12-07 03:10:00,
2013-12-06 22:15:00,38.5,37.1,30.17,ENE,62,1.0,5.0,95,0.03,,,1.53,WUHU216DAVISVP2,2013-12-07 03:15:00,
2013-12-06 22:20:00,38.5,37.1,30.18,NE,36,0.0,5.0,95,0.03,,,1.53,WUHU216DAVISVP2,2013-12-07 03:20:00,
2013-12-06 22:25:00,38.5,37.1,30.19,NE,36,0.0,5.0,95,0.01,,,1.53,WUHU216DAVISVP2,2013-12-07 03:25:00,
2013-12-06 22:30:00,38.5,37.1,30.19,NE,36,0.0,3.0,95,0.01,,,1.53,WUHU216DAVISVP2,2013-12-07 03:30:00,
2013-12-06 22:35:00,38.5,37.1,30.19,NE,36,0.0,2.0,95,0.01,,,1.53,WUHU216DAVISVP2,2013-12-07 03:35:00,
2013-12-06 22:40:00,38.6,37.2,30.20,NE,36,0.0,1.0,95,0.01,,,1.53,WUHU216DAVISVP2,2013-12-07 03:40:00,
2013-12-06 22:45:00,38.6,37.2,30.20,NE,36,0.0,1.0,95,0.01,,,1.53,WUHU216DAVISVP2,2013-12-07 03:45:00,
2013-12-06 22:50:00,38.6,37.2,30.20,NE,36,0.0,2.0,95,0.00,,,1.53,WUHU216DAVISVP2,2013-12-07 03:50:00,
2013-12-06 22:55:00,38.7,37.3,30.19,NE,36,0.0,2.0,95,0.00,,,1.53,WUHU216DAVISVP2,2013-12-07 03:55:00,
2013-12-06 23:00:00,38.7,37.3,30.20,NE,36,0.0,2.0,95,0.00,,,1.53,WUHU216DAVISVP2,2013-12-07 04:00:00,
2013-12-06 23:05:00,38.8,37.4,30.20,NE,36,0.0,2.0,95,0.00,,,1.53,WUHU216DAVISVP2,2013-12-07 04:05:00,
2013-12-06 23:10:00,38.8,37.4,30.21,North,360,0.0,2.0,95,0.00,,,1.53,WUHU216DAVISVP2,2013-12-07 04:10:00,
2013-12-06 23:15:00,38.9,37.6,30.21,North,360,0.0,2.0,95,0.00,,,1.53,WUHU216DAVISVP2,2013-12-07 04:15:00,
2013-12-06 23:20:00,38.9,37.5,30.20,NNE,22,2.0,2.0,95,0.00,,,1.53,WUHU216DAVISVP2,2013-12-07 04:20:00,
2013-12-06 23:25:00,39.0,37.6,30.21,NNE,31,0.0,3.0,95,0.00,,,1.53,WUHU216DAVISVP2,2013-12-07 04:25:00,
2013-12-06 23:30:00,39.1,37.7,30.21,NNE,30,0.0,3.0,95,0.00,,,1.53,WUHU216DAVISVP2,2013-12-07 04:30:00,
2013-12-06 23:35:00,39.1,37.8,30.21,NE,50,0.0,3.0,95,0.00,,,1.53,WUHU216DAVISVP2,2013-12-07 04:35:00,
2013-12-06 23:40:00,39.1,37.7,30.22,NE,49,0.0,3.0,95,0.00,,,1.53,WUHU216DAVISVP2,2013-12-07 04:40:00,
2013-12-06 23:45:00,39.2,37.8,30.22,NE,49,0.0,3.0,95,0.00,,,1.53,WUHU216DAVISVP2,2013-12-07 04:45:00,
2013-12-06 23:50:00,39.3,37.9,30.23,WNW,296,0.0,3.0,95,0.00,,,1.53,WUHU216DAVISVP2,2013-12-07 04:50:00,
2013-12-06 23:55:00,39.3,37.9,30.23,WNW,296,0.0,2.0,95,0.00,,,1.53,WUHU216DAVISVP2,2013-12-07 04:55:00,